Location: Cedar Ridge
(38.0658°N, 120.2769°W)
Time: 21:05:10
(UTC+00:00)

Cosmos 1758 Rocket - Pass Details

Date: 10 September 2024
Orbit: 597 x 632 km, 82.5° (Epoch: 10 October)

Event Time Altitude Azimuth Distance (km) Brightness Sun altitude
Rises 12:16:48 0° 345° (NNW) 2,905 7.1 -16.6°
Reaches altitude 10° 12:19:07 10° 339° (NNW) 1,989 6.1 -16.2°
Maximum altitude 12:23:17 43° 268° (W) 865 3.8 -15.4°
Drops below altitude 10° 12:27:22 10° 197° (SSW) 1,953 5.8 -14.6°
Enters shadow 12:29:27 - 190° (S) 2,771 6.6 -14.2°
